CW8507 Weather Reports


time (UTC)temp
C
wind
direction
speed
KPH
gust
KPH
rain 1hr
cm
rain 24hr
cm
rain mn
cm
humidity
%
barometer
mb
20260506224435 25 262 4.8 9.7 0.00 0.00 0.00 34 1011.5
20260506222935 26 270 1.6 8.0 0.00 0.00 0.00 36 1011.6
20260506221437 26 208 3.2 12.9 0.00 0.00 0.00 36 1011.7
20260506215936 26 300 3.2 17.7 0.00 0.00 0.00 37 1011.7
20260506214435 26 199 3.2 16.1 0.00 0.00 0.00 37 1012.1
20260506212935 25 339 4.8 11.3 0.00 0.00 0.00 37 1012.1
20260506211435 25 169 3.2 9.7 0.00 0.00 0.00 39 1012.2
20260506205936 25 250 1.6 11.3 0.00 0.00 0.00 39 1012.5
20260506204437 25 270 4.8 17.7 0.00 0.00 0.00 39 1012.7
20260506202935 25 204 1.6 14.5 0.00 0.00 0.00 41 1012.7
20260506201435 24 185 4.8 20.9 0.00 0.00 0.00 42 1012.8
20260506195938 23 177 8.0 19.3 0.00 0.00 0.00 41 1012.8
20260506194437 23 271 4.8 14.5 0.00 0.00 0.00 45 1012.9
20260506192935 23 178 8.0 17.7 0.00 0.00 0.00 43 1013.3
20260506191436 23 136 3.2 14.5 0.00 0.00 0.00 43 1013.4
20260506185935 22 252 3.2 20.9 0.00 0.00 0.00 43 1013.8
20260506184435 22 184 9.7 17.7 0.00 0.00 0.00 44 1013.6
20260506182935 22 157 11.3 16.1 0.00 0.00 0.00 44 1013.5
20260506181435 22 250 3.2 19.3 0.00 0.00 0.00 46 1013.5
20260506175936 21 178 6.4 22.5 0.00 0.00 0.00 47 1013.6
20260506174435 22 166 3.2 8.0 0.00 0.00 0.00 45 1013.7
20260506172935 21 294 0.0 12.9 0.00 0.00 0.00 47 1013.8
20260506171435 21 160 1.6 11.3 0.00 0.00 0.00 48 1013.9
20260506165936 20 240 3.2 6.4 0.00 0.00 0.00 45 1014.1
20260506164435 19 173 4.8 12.9 0.00 0.00 0.00 45 1014.3
20260506162938 18 124 1.6 6.4 0.00 0.00 0.00 47 1014.4
20260506161435 17 40 1.6 8.0 0.00 0.00 0.00 47 1014.3
20260506155935 16 93 3.2 8.0 0.00 0.00 0.00 48 1014.4
20260506154434 15 50 3.2 6.4 0.00 0.00 0.00 49 1014.4
20260506152937 15 137 1.6 6.4 0.00 0.00 0.00 51 1014.3
20260506151437 15 349 1.6 3.2 0.00 0.00 0.00 49 1014.6
20260506145934 14 105 1.6 3.2 0.00 0.00 0.00 52 1014.6
20260506144435 13 164 0.0 3.2 0.00 0.00 0.00 56 1014.5
20260506142934 13 118 1.6 1.6 0.00 0.00 0.00 57 1014.6
20260506141434 11 205 0.0 1.6 0.00 0.00 0.00 64 1014.5
20260506135938 10 203 0.0 1.6 0.00 0.00 0.00 68 1014.7
20260506134437 8 108 0.0 1.6 0.00 0.00 0.00 73 1014.5
20260506132936 6 262 0.0 1.6 0.00 0.00 0.00 81 1014.4
20260506131436 6 119 0.0 1.6 0.00 0.00 0.00 82 1014.3
20260506125939 6 162 0.0 1.6 0.00 0.00 0.00 82 1014.2
20260506124439 5 238 0.0 1.6 0.00 0.00 0.00 82 1014.1
20260506122938 5 151 0.0 0.0 0.00 0.00 0.00 82 1014.0
20260506121435 6 150 0.0 1.6 0.00 0.00 0.00 81 1013.9
20260506115938 6 143 0.0 1.6 0.00 0.00 0.00 80 1013.8
20260506114437 6 191 0.0 1.6 0.00 0.00 0.00 79 1013.6
20260506112938 6 101 0.0 1.6 0.00 0.00 0.00 80 1013.7
20260506111438 6 162 0.0 3.2 0.00 0.00 0.00 79 1013.7
20260506105937 6 136 0.0 1.6 0.00 0.00 0.00 78 1013.7
20260506104437 7 113 0.0 1.6 0.00 0.00 0.00 78 1013.8
20260506102938 7 155 0.0 1.6 0.00 0.00 0.00 76 1013.7
20260506101438 7 124 0.0 3.2 0.00 0.00 0.00 78 1013.6
20260506095939 7 123 0.0 1.6 0.00 0.00 0.00 79 1013.7
20260506094438 7 136 0.0 1.6 0.00 0.00 0.00 79 1013.7
20260506092939 7 165 0.0 1.6 0.00 0.00 0.00 79 1013.6
20260506091438 7 165 0.0 0.0 0.00 0.00 0.00 79 1013.6
20260506085940 7 157 0.0 0.0 0.00 0.00 0.00 78 1013.6
20260506084439 7 159 0.0 1.6 0.00 0.00 0.00 77 1013.6
20260506082940 7 149 0.0 0.0 0.00 0.00 0.00 77 1013.5
20260506081440 8 148 0.0 0.0 0.00 0.00 0.00 76 1013.4
20260506072942 8 271 0.0 0.0 0.00 0.00 0.00 74 1013.2
20260506071437 9 271 0.0 1.6 0.00 0.00 0.00 72 1013.2
20260506061440 10 140 0.0 0.0 0.00 0.00 0.00 72 1012.7
20260506044437 12 154 0.0 0.0 0.00 0.00 0.00 63 1012.1
20260506042942 13 154 0.0 0.0 0.00 0.00 0.00 61 1012.0
20260506041439 13 154 0.0 0.0 0.00 0.00 0.00 59 1011.9
20260506035939 14 155 0.0 0.0 0.00 0.00 0.00 55 1011.7
20260506034439 15 155 0.0 0.0 0.00 0.00 0.00 52 1011.6
20260506032941 16 155 0.0 1.6 0.00 0.00 0.00 49 1011.5
20260506031439 17 154 0.0 0.0 0.00 0.00 0.00 44 1011.4
20260506025940 18 132 0.0 0.0 0.00 0.00 0.00 40 1011.3
20260506024439 20 132 0.0 0.0 0.00 0.00 0.00 37 1011.4
20260506022939 21 132 0.0 3.2 0.00 0.00 0.00 29 1011.3
20260506021441 22 121 1.6 4.8 0.00 0.00 0.00 27 1011.3
20260506015939 22 94 1.6 4.8 0.00 0.00 0.00 26 1011.3
20260506014442 23 132 1.6 3.2 0.00 0.00 0.00 25 1011.3
20260506012939 23 166 0.0 3.2 0.00 0.00 0.00 26 1011.3
20260506011440 23 36 0.0 6.4 0.00 0.00 0.00 26 1011.4
20260506005940 24 42 3.2 3.2 0.00 0.00 0.00 24 1011.4
20260506004439 23 134 1.6 4.8 0.00 0.00 0.00 25 1011.5
20260506002942 22 94 1.6 6.4 0.00 0.00 0.00 27 1011.5
20260506001440 23 65 1.6 9.7 0.00 0.00 0.00 26 1011.6
20260505235940 23 110 3.2 11.3 0.00 0.00 0.00 27 1011.9
20260505234441 23 127 6.4 14.5 0.00 0.00 0.00 25 1012.0
20260505232939 23 105 1.6 11.3 0.00 0.00 0.00 27 1012.0
20260505231442 23 55 3.2 11.3 0.00 0.00 0.00 28 1012.1
20260505225942 23 298 1.6 16.1 0.00 0.00 0.00 26 1012.1